Location: Newark
(51.0500°N, 12.4500°E)
Time: 06:26:29
(UTC+00:00)

Tiros 1 - Pass Details

Date: 20 February 2020
Orbit: 630 x 664 km, 48.4° (Epoch: 07 April)

Event Time Altitude Azimuth Distance (km) Brightness Sun altitude
Rises 06:54:48 0° 278° (W) 2,919 9.9 5.1°
Reaches altitude 10° 06:57:14 10° 271° (W) 2,010 9.2 5.4°
Maximum altitude 07:01:29 37° 204° (SSW) 983 8.2 6.0°
Drops below altitude 10° 07:05:44 10° 137° (SE) 2,011 11.3 6.6°
Sets 07:08:11 0° 129° (SE) 2,921 12.6 7.0°
